Wind_Speed
10 11 12 13 14 14 15 15 15 15 16 16 16 15 15 14 14 13 13 14 15 14 12 9 7 6 5 7 7 7 7 8 8 5 6 5 3 2 2 1 1 1 1 2 3 8 6 4 5 7 7 3 1 0 2 1 1 2 2 3 4 3 3 3 5 4 1 1 5 8 10 11 7 6 4 3 5 4 4 8 6 6 7 6 2 3 9 23
9 10 12 12 13 14 15 16 16 16 16 16 16 16 16 15 15 14 13 13 13 14 13 10 7 7 6 6 7 7 7 8 8 7 9 7 5 3 1 1 0 0 0 2 4 7 6 4 6 7 5 3 0 0 2 0 1 2 1 3 4 2 1 1 3 3 1 1 4 8 9 8 6 8 7 6 8 7 8 9 8 9 11 10 5 4 14 24
9 10 10 11 12 13 14 16 16 17 17 17 17 17 16 16 16 15 14 13 12 13 13 11 8 7 6 5 6 7 6 7 6 6 10 10 7 4 2 1 0 0 1 2 4 6 5 4 8 7 3 2 1 0 2 0 1 1 1 5 3 1 3 2 4 4 2 1 3 7 6 6 4 6 7 7 6 9 12 11 9 13 16 13 10 11 18 24
10 10 11 11 12 13 14 15 16 17 17 18 17 17 16 16 16 16 15 14 13 12 12 11 8 6 6 4 4 4 2 4 4 5 10 11 8 4 2 0 1 0 1 2 4 4 3 6 7 3 2 2 1 1 2 1 0 1 2 4 1 1 3 2 4 3 2 1 3 6 5 6 4 5 7 7 6 9 13 14 14 16 17 14 13 15 20 24
9 10 11 12 13 14 14 15 16 17 18 18 18 18 17 16 16 16 16 15 14 12 12 10 8 7 5 3 2 2 1 3 2 5 10 10 8 5 2 0 1 1 2 2 4 6 5 6 4 1 1 2 2 2 2 2 1 2 3 2 2 1 3 1 2 2 3 1 3 6 6 5 5 5 9 10 11 9 6 11 15 15 11 13 16 18 21 23
9 10 11 12 13 13 14 15 16 17 18 18 18 18 18 17 17 17 16 15 14 12 11 9 8 6 4 2 2 3 3 3 1 5 8 7 7 5 2 1 0 1 2 2 4 5 4 3 3 3 2 2 3 3 1 2 0 3 3 1 1 3 3 2 2 2 3 4 5 5 4 5 6 7 9 13 18 7 4 1 7 9 7 13 17 18 20 22
10 10 11 11 12 13 14 14 15 16 17 18 18 19 19 18 17 17 17 16 15 13 11 9 7 5 2 1 2 2 2 5 2 6 8 6 6 5 3 1 1 1 2 3 3 3 2 2 4 3 2 1 3 3 2 1 2 4 2 2 2 3 5 2 2 2 3 4 3 2 2 5 10 7 2 13 21 10 3 3 1 4 7 13 16 18 20 22
12 12 12 12 13 14 14 15 15 16 17 17 18 18 19 19 18 17 17 17 15 14 12 8 6 4 3 2 1 1 2 4 5 8 8 7 6 5 4 2 3 2 3 3 2 2 2 1 2 3 3 1 3 4 2 2 4 5 3 1 2 2 5 2 1 2 3 3 0 2 5 5 7 2 3 15 19 13 7 4 3 4 8 12 15 18 19 20
14 14 14 14 14 15 15 16 16 17 18 18 18 18 19 20 19 18 18 17 16 15 11 6 4 4 4 3 0 3 3 3 5 7 7 7 6 5 5 3 4 4 4 3 3 3 2 1 2 3 3 1 3 4 3 4 3 5 3 1 3 2 3 1 2 2 2 3 2 5 8 3 2 3 9 17 14 11 10 6 6 7 9 12 14 17 18 18
15 15 16 16 16 17 16 16 17 18 19 19 19 19 20 20 20 19 18 18 17 14 8 5 4 4 5 4 2 3 2 3 5 5 5 5 6 5 4 5 5 5 4 3 3 2 1 2 3 1 1 2 3 2 2 3 1 1 1 1 4 3 1 1 2 1 1 3 4 8 9 2 3 2 10 7 2 6 9 8 8 9 11 13 13 15 17 18
15 16 16 17 18 19 18 18 18 18 19 20 19 19 20 21 21 20 20 20 17 11 7 5 5 5 5 5 5 4 2 3 5 4 4 4 5 5 5 6 5 5 5 3 3 3 3 5 7 3 1 2 4 2 1 1 2 1 1 3 5 5 4 5 5 2 2 3 5 6 9 5 3 6 14 3 5 6 9 10 10 11 12 12 14 13 13 16
17 17 17 18 19 19 19 19 19 19 20 20 20 20 20 21 22 21 21 21 15 9 4 4 5 5 4 3 6 6 4 4 4 3 4 4 5 5 5 5 5 5 5 3 4 5 5 9 9 2 1 2 3 2 1 2 1 0 1 4 4 5 6 6 4 2 3 3 5 3 7 9 9 15 16 4 6 6 7 9 10 12 12 11 12 11 11 14
18 19 19 19 20 20 20 20 20 20 21 21 21 20 20 21 21 22 22 19 12 5 3 4 4 6 4 2 5 8 8 6 5 3 3 5 6 5 4 4 4 4 4 4 6 6 7 9 7 2 1 2 1 1 2 3 1 1 2 3 3 5 5 4 2 2 4 2 4 3 7 8 13 20 14 6 7 6 7 10 10 10 10 9 10 10 11 13
18 19 20 21 21 22 21 21 21 21 21 21 21 20 20 20 20 21 21 15 8 2 4 5 5 7 4 3 3 6 9 8 6 5 5 7 7 5 5 4 4 4 4 5 8 7 7 8 5 4 3 1 1 3 2 2 1 1 1 1 2 5 1 4 3 4 6 2 3 5 7 8 8 12 8 6 8 8 8 12 10 10 9 9 10 10 11 13
18 20 20 21 22 23 23 22 22 22 22 22 21 20 20 20 20 20 17 10 4 1 4 4 6 6 2 4 3 5 8 7 7 7 6 8 7 5 5 6 6 7 7 7 8 8 7 6 4 3 2 1 1 3 3 2 2 1 2 3 2 3 1 3 4 6 5 1 4 7 6 11 8 4 4 4 6 8 11 13 11 11 10 10 10 11 11 12
18 20 20 21 22 23 23 23 22 22 22 22 21 20 18 19 20 17 12 5 1 3 4 4 8 5 3 2 2 3 6 7 9 9 8 8 7 5 7 8 7 7 7 7 8 8 6 4 1 1 1 2 3 3 3 4 3 2 3 5 2 4 3 1 4 4 3 2 6 9 7 10 7 2 4 3 5 7 10 13 13 12 11 11 11 10 11 11
18 19 20 21 21 23 24 23 21 22 23 22 21 19 17 17 17 12 6 2 2 3 3 3 7 4 3 2 2 3 5 7 10 10 9 8 8 9 10 7 5 5 6 6 5 4 2 1 0 1 1 1 1 2 4 6 6 2 2 4 4 4 4 3 2 3 3 4 8 10 9 15 15 5 3 5 7 7 10 13 15 12 11 11 11 10 11 11
17 19 20 21 21 22 24 23 21 21 22 21 19 19 17 15 11 6 1 4 4 3 2 3 5 3 3 3 3 2 4 6 9 9 9 8 9 12 8 4 4 5 5 3 2 1 1 0 1 3 2 2 3 5 6 7 6 4 4 5 5 5 6 6 3 3 5 5 8 10 12 18 22 16 9 7 9 9 13 14 15 13 12 12 11 12 11 12
17 19 20 21 21 22 24 23 20 20 21 20 17 16 14 10 6 3 4 4 3 2 1 2 5 2 2 2 1 1 3 6 7 8 9 8 10 10 5 5 5 4 3 2 3 3 1 1 2 4 5 8 8 10 11 8 4 5 5 5 7 6 8 6 2 2 4 5 10 13 14 18 21 20 17 11 9 10 16 16 15 13 12 12 12 11 11 13
16 18 19 20 20 21 23 22 19 18 19 18 15 12 8 3 2 2 2 3 5 3 1 2 4 3 3 1 2 4 4 5 5 6 9 10 10 9 4 4 3 2 4 3 3 2 1 3 6 9 10 9 11 13 10 3 0 3 2 4 7 8 10 5 4 3 2 4 11 14 14 17 20 19 19 16 8 10 16 19 17 13 12 13 13 12 12 15
15 17 17 18 18 18 20 20 17 16 15 13 11 7 3 0 2 3 1 4 6 4 3 3 3 6 7 2 5 7 3 3 4 5 11 11 9 7 5 4 5 5 4 1 2 2 2 6 12 13 8 4 5 8 5 1 2 4 4 5 7 8 9 5 4 3 3 4 10 11 12 16 19 19 18 17 15 17 20 20 19 16 13 12 12 13 13 13
15 16 17 17 16 16 18 17 16 15 12 9 6 3 1 1 3 2 1 5 4 3 4 2 2 7 8 5 7 7 2 3 4 6 11 10 5 5 4 5 7 5 2 3 3 2 3 11 14 5 4 4 2 2 5 5 4 4 3 4 6 5 6 5 2 3 3 4 7 8 11 16 19 20 20 18 18 20 20 18 17 16 14 13 12 13 13 12
15 16 18 16 14 15 16 16 16 13 9 6 4 2 1 0 3 3 1 4 4 2 3 3 4 6 6 5 7 9 5 6 4 6 13 12 4 2 4 7 6 2 4 8 8 5 5 9 7 3 7 7 3 3 6 4 4 5 4 5 7 3 2 5 0 2 4 4 6 10 12 14 16 18 18 16 15 19 19 16 15 14 15 15 11 10 12 14
15 16 17 14 13 13 14 15 13 8 6 6 4 3 3 3 4 3 1 3 3 2 3 4 4 5 5 2 8 12 7 4 3 3 13 14 5 3 5 6 5 3 7 11 11 10 9 4 2 4 5 7 4 4 7 6 5 7 7 9 10 5 4 5 2 2 5 4 3 8 11 10 10 11 10 4 5 12 13 11 14 14 14 13 10 10 13 15
15 15 15 13 12 13 15 14 8 6 7 4 2 2 4 5 5 3 1 3 3 1 2 4 4 5 5 4 7 9 2 2 2 2 10 11 5 5 3 2 4 8 8 8 8 11 10 2 5 5 3 5 6 5 8 8 6 6 8 12 12 7 4 2 3 4 5 3 1 4 10 8 4 6 6 1 2 8 6 7 14 14 11 10 11 12 14 14
14 15 13 13 14 14 13 7 4 8 6 1 1 2 5 6 4 2 1 3 5 2 1 4 4 6 8 5 4 5 1 2 1 3 7 7 3 3 2 2 2 5 4 7 5 6 3 1 2 4 5 6 7 7 7 8 6 5 3 5 8 6 3 2 1 3 4 4 0 2 6 9 2 7 6 4 4 6 4 6 12 11 8 10 11 11 11 12
13 14 13 14 14 11 7 4 6 8 3 1 2 2 4 5 4 1 2 4 5 4 4 2 1 4 6 2 2 4 2 1 3 3 3 2 2 1 3 6 3 1 3 4 3 2 2 3 2 4 5 6 7 7 6 10 6 3 1 1 3 4 4 5 4 5 5 4 2 3 6 11 8 8 9 8 7 7 8 10 12 14 10 8 10 11 11 12
13 13 13 14 11 6 5 8 9 4 1 3 3 2 3 4 3 1 2 6 4 4 4 1 1 2 3 1 1 1 1 1 2 2 1 1 1 1 4 7 4 4 4 4 5 2 3 4 6 7 6 6 6 2 4 11 6 1 1 1 4 4 3 4 4 5 3 4 4 7 8 9 10 6 6 6 9 10 13 15 15 17 14 7 8 10 11 12
12 11 12 11 7 3 7 9 6 3 5 5 3 2 3 4 3 1 2 6 2 3 2 2 3 1 3 2 2 0 1 2 1 0 1 1 1 1 3 3 2 4 3 3 5 1 2 2 3 6 6 5 2 4 1 6 4 3 4 4 6 4 3 3 3 4 3 4 7 8 11 7 10 4 7 1 7 12 13 13 13 13 11 7 6 8 9 9
13 11 10 9 5 4 7 7 5 5 6 5 3 1 3 4 2 2 6 6 1 1 1 3 3 3 5 5 3 1 1 1 1 1 1 1 1 2 1 0 2 2 1 2 4 1 2 1 1 2 3 2 5 5 4 1 3 6 6 3 3 2 2 1 1 1 4 7 6 11 16 12 9 1 9 5 6 11 11 9 10 9 8 9 7 7 8 8
15 13 12 11 8 6 5 3 3 2 4 5 2 2 3 1 1 6 9 3 0 1 3 3 3 5 8 6 3 3 3 1 2 4 3 2 3 2 2 2 2 2 2 4 5 2 3 2 2 1 1 3 5 5 4 3 2 3 3 1 1 2 2 2 2 2 6 6 2 5 11 14 11 4 7 5 5 9 10 8 10 9 8 9 7 6 7 7
16 16 15 13 11 8 6 6 4 4 5 4 1 3 2 2 4 7 3 2 1 3 3 3 3 5 7 3 1 3 3 2 3 5 4 3 5 6 6 5 5 3 4 5 4 2 3 4 3 2 1 4 5 4 4 2 2 3 3 3 3 4 2 3 3 3 6 5 1 2 3 10 14 9 6 5 4 8 9 9 9 8 7 7 5 5 5 5
17 17 18 16 14 11 9 10 10 10 7 1 2 1 2 5 8 4 5 2 2 1 2 2 1 3 5 4 3 3 2 2 4 4 3 2 4 6 6 3 2 2 3 4 3 2 2 1 4 5 2 5 9 8 4 4 6 7 6 5 5 3 2 5 4 2 5 4 2 4 2 7 9 8 12 16 14 12 10 11 10 7 8 5 1 2 3 4
18 19 20 19 17 13 9 10 11 10 6 1 3 2 3 9 5 5 8 7 1 1 2 2 3 3 4 2 3 4 3 4 6 6 4 4 4 6 7 7 6 2 1 2 2 3 5 5 6 8 3 8 13 9 2 5 7 7 3 2 5 4 4 6 5 5 7 5 2 4 2 5 3 1 8 14 14 12 10 11 9 7 9 4 2 1 3 4
20 21 23 21 19 17 12 11 11 8 4 2 4 4 6 11 3 3 6 5 2 1 2 1 3 4 4 2 1 3 4 4 5 5 5 6 6 6 6 9 10 6 2 3 3 3 6 7 4 3 1 8 11 4 3 6 5 3 2 1 4 4 5 5 4 2 3 6 5 5 4 7 3 0 2 2 4 9 12 14 10 9 11 7 4 5 6 7
22 22 23 24 24 20 16 14 12 9 5 3 5 6 10 12 5 3 4 5 4 5 5 1 2 4 4 2 3 4 3 2 3 4 5 6 7 5 3 4 10 13 9 5 2 3 4 4 4 4 2 4 3 1 2 1 3 4 3 4 2 0 2 5 3 1 1 7 7 4 7 9 4 4 6 7 5 8 11 13 13 13 12 8 7 8 8 8
25 23 22 25 28 23 17 15 14 11 5 4 8 10 9 9 6 5 4 4 3 5 6 5 5 6 5 4 5 6 5 2 4 5 4 4 5 6 6 4 7 16 18 10 3 4 4 3 2 3 1 0 4 3 2 3 1 4 4 4 3 2 1 2 4 1 2 8 7 6 11 12 9 5 4 8 8 9 12 12 11 11 10 9 9 10 9 8
27 20 17 24 32 26 19 18 17 12 4 3 12 15 7 4 5 5 5 4 3 5 7 7 6 7 7 6 4 6 7 5 6 6 4 4 4 6 10 6 6 15 20 14 4 3 3 3 2 1 0 2 2 2 2 2 2 1 2 1 1 2 3 3 2 4 6 7 7 12 17 14 12 6 5 10 11 12 14 13 10 10 10 9 10 11 10 7
21 10 7 18 30 27 24 24 17 8 3 4 11 12 5 4 4 3 6 6 5 7 10 10 7 5 7 6 3 5 8 8 8 6 6 5 4 5 10 7 7 11 16 14 7 2 3 4 4 1 2 1 2 3 6 5 3 1 2 1 1 2 3 3 2 2 5 6 8 15 18 13 7 5 9 13 13 12 12 11 11 12 11 10 10 9 8 7
13 4 3 16 31 30 30 26 13 6 5 6 9 8 2 3 3 3 5 7 4 4 8 11 10 7 6 4 1 3 7 7 7 7 5 5 4 4 8 7 4 5 8 10 7 2 3 4 5 1 1 2 5 7 9 9 8 5 5 6 4 2 1 2 2 1 3 6 7 9 14 13 2 6 9 12 11 11 10 9 9 9 10 11 9 8 8 7
7 4 3 20 37 37 30 17 6 6 5 5 9 10 4 3 3 3 4 3 2 2 2 5 8 9 7 5 3 4 5 5 6 6 5 6 6 4 8 10 7 7 6 5 6 5 4 4 6 4 3 6 6 3 2 2 6 8 7 8 9 7 4 3 5 3 2 5 7 4 11 16 3 6 3 4 5 7 7 8 7 7 10 10 8 9 8 7
4 4 5 26 44 40 25 9 5 6 5 6 7 6 3 3 4 3 2 0 1 2 1 2 4 7 7 6 5 5 5 5 7 7 5 7 9 7 7 9 9 10 8 4 5 5 3 2 5 7 6 4 1 2 1 2 1 4 5 6 7 7 7 7 7 4 3 4 5 1 8 15 3 7 2 3 5 4 5 6 6 6 8 8 7 7 7 7
3 3 6 29 47 37 16 6 7 7 8 7 4 4 1 1 3 2 2 3 3 2 2 3 3 5 6 5 3 4 6 6 6 7 3 4 9 8 6 7 9 8 5 3 2 2 2 2 5 6 5 1 3 4 2 0 2 4 6 6 7 8 10 7 4 2 2 6 5 3 8 13 1 8 1 2 4 4 3 3 5 6 6 6 6 6 6 7
3 2 3 21 41 31 13 7 9 11 10 7 7 9 5 2 3 5 4 4 4 3 4 5 3 4 5 2 3 5 7 7 6 6 5 6 5 3 6 11 13 8 5 4 4 5 5 3 4 4 5 4 2 3 3 2 4 5 5 7 9 11 11 4 1 0 5 12 11 6 11 14 2 4 2 3 3 5 3 4 6 6 5 5 5 5 7 7
2 2 3 10 24 19 8 5 6 9 12 12 13 15 11 6 5 7 8 7 6 3 2 4 2 2 3 2 3 6 7 8 8 5 6 8 3 2 2 10 15 12 5 2 4 6 6 5 6 7 8 9 11 10 4 4 6 4 3 10 13 16 17 10 4 7 10 11 11 10 14 15 12 12 11 6 7 11 6 5 7 7 6 6 6 5 7 7
2 3 2 3 9 9 6 4 3 5 10 13 12 11 13 13 6 3 7 9 9 6 3 2 0 2 5 5 7 10 11 12 9 5 6 7 1 1 2 6 10 9 3 3 6 6 3 5 11 14 14 13 15 15 5 7 7 7 7 13 16 19 21 14 9 11 8 4 7 15 20 18 18 24 24 18 16 19 15 7 7 7 7 7 7 7 8 7
2 4 5 5 5 6 7 7 6 7 9 10 8 6 12 17 10 3 6 8 8 8 6 3 3 5 7 9 12 13 14 12 9 10 14 10 3 1 1 3 5 4 1 1 4 4 2 5 15 21 23 21 21 25 16 7 9 10 10 14 17 18 20 17 18 14 5 4 9 20 23 19 18 23 28 25 20 18 18 15 13 9 6 7 8 9 10 10
3 3 5 7 6 6 10 13 14 15 13 10 8 7 11 14 12 9 8 4 2 5 6 5 9 14 16 14 12 11 11 8 7 12 16 14 7 2 1 1 2 1 1 1 2 2 3 6 12 17 21 21 21 25 21 10 8 9 9 13 16 19 21 23 23 16 9 9 17 22 24 20 17 22 26 23 19 19 19 19 17 9 4 5 9 10 10 10
4 2 2 6 6 7 13 16 17 19 18 13 9 9 11 13 16 15 8 3 2 8 11 10 14 19 21 19 14 11 10 9 11 14 13 13 11 5 3 5 2 1 2 3 1 2 3 6 12 14 15 17 17 21 22 14 9 10 9 10 14 18 20 21 21 18 19 21 18 17 20 20 18 22 22 18 18 18 16 17 19 15 10 13 17 18 17 13
4 2 1 5 5 6 11 12 11 13 16 14 10 11 13 17 20 17 10 9 10 9 12 17 22 21 22 22 18 16 16 17 19 18 14 14 11 7 6 7 2 2 3 4 2 2 4 8 12 12 11 14 18 23 22 14 10 12 11 13 19 18 15 17 19 17 17 19 18 16 15 16 18 21 20 20 21 19 16 19 24 21 15 16 20 21 21 18
9 10 7 4 5 7 9 10 10 11 12 12 12 13 14 19 21 19 14 15 18 14 14 23 27 22 17 17 15 18 23 24 25 25 21 15 9 7 7 5 4 4 3 4 3 2 5 7 8 8 9 12 17 20 17 9 6 8 11 19 26 20 13 17 19 14 12 14 19 18 13 14 18 20 20 22 23 22 21 22 23 22 16 15 18 19 20 20
11 12 10 6 3 6 9 9 11 12 10 12 17 19 18 20 22 19 13 11 18 22 19 20 22 17 12 14 18 24 28 27 27 26 20 11 6 7 8 7 8 8 6 5 3 2 5 6 6 8 9 11 16 17 12 6 4 7 14 23 25 20 19 23 21 18 17 15 15 15 13 15 19 19 19 21 22 21 19 18 21 22 18 14 16 20 22 20
Wind_Direction
11 9 8 9 9 9 8 9 10 12 13 13 14 14 15 14 13 13 9 3 357 357 356 350 342 324 284 263 257 263 288 314 315 270 239 239 222 187 173 185 218 319 314 299 197 178 176 182 169 159 164 160 341 131 138 40 27 239 228 231 247 235 232 209 201 198 339 57 155 173 189 200 185 163 167 156 207 212 189 207 218 236 240 239 286 357 163 160
5 6 6 4 5 6 4 4 3 5 7 8 9 9 9 9 8 6 5 4 355 351 348 344 337 331 308 272 258 260 279 306 307 264 244 235 216 198 150 126 206 279 216 248 212 196 207 203 164 161 173 175 193 194 179 126 291 237 219 245 250 236 236 212 229 217 202 19 151 178 198 213 197 154 160 202 205 191 212 216 214 238 234 221 222 188 167 165
360 359 358 357 359 0 360 0 358 359 1 2 3 4 4 3 4 3 0 360 356 350 343 337 330 330 320 291 261 256 280 304 299 255 231 218 209 200 165 100 15 186 176 207 200 208 230 178 157 160 167 172 113 229 197 154 264 218 217 250 252 282 278 225 226 223 174 76 158 182 188 210 206 144 163 213 212 196 218 219 200 224 230 210 183 171 172 173
357 353 350 349 351 353 354 355 353 353 354 356 357 358 359 359 359 359 357 356 353 349 342 333 324 327 323 307 259 242 288 291 271 206 198 200 205 201 189 205 18 149 162 183 164 167 173 143 145 150 170 170 104 258 218 47 318 167 216 266 4 35 280 205 196 207 157 227 216 173 163 205 195 151 186 199 216 222 225 222 208 219 222 196 167 169 177 179
351 348 346 342 344 346 347 348 348 348 348 350 351 352 353 354 355 355 355 353 350 347 343 332 317 325 323 306 238 204 232 264 234 174 183 188 200 202 205 254 3 133 150 168 135 133 139 133 135 132 195 176 154 209 193 74 39 198 217 297 17 201 269 90 129 172 151 184 202 168 174 189 144 178 211 202 223 236 225 222 219 225 214 173 168 172 178 184
341 342 341 338 338 337 338 341 342 342 343 344 345 348 348 349 350 351 351 350 347 343 339 328 310 316 320 296 205 181 224 260 130 178 188 188 203 205 215 242 4 144 157 175 140 141 137 140 184 183 188 177 181 201 143 110 278 246 218 206 228 213 255 3 78 156 170 188 189 181 182 150 160 216 218 216 232 237 72 173 222 234 203 161 167 171 178 188
333 335 333 332 331 330 332 332 334 336 337 338 341 344 344 345 346 346 346 346 344 340 335 321 297 297 300 217 177 148 239 273 242 202 203 203 212 211 221 230 220 170 161 192 170 167 152 171 212 193 181 171 190 190 124 148 215 258 240 177 204 196 235 305 47 181 195 224 209 150 167 174 204 223 203 229 238 234 105 90 154 228 175 157 167 176 186 191
328 328 327 326 325 325 325 324 328 330 329 331 335 339 341 342 343 343 342 342 341 336 331 312 282 274 239 182 203 238 250 258 232 214 211 212 215 213 220 222 220 194 165 191 169 173 189 206 205 186 204 199 183 173 155 191 193 226 235 171 172 193 236 273 330 213 195 239 354 177 220 200 211 252 276 245 242 231 202 140 136 175 166 172 183 186 191 194
326 324 323 322 321 321 320 321 324 324 325 326 330 335 337 338 340 341 338 339 338 333 327 300 265 247 216 170 185 267 247 224 212 210 209 213 215 209 215 215 205 193 172 149 126 163 206 229 177 202 229 110 183 167 173 227 207 212 219 184 202 218 247 244 236 204 187 233 156 228 244 200 171 315 266 251 246 222 198 183 177 172 180 190 194 192 193 196
324 322 321 320 320 320 318 319 320 321 321 321 326 331 334 336 336 337 336 335 336 332 320 273 242 226 203 172 187 253 252 204 201 203 210 214 210 202 208 209 195 192 182 135 137 161 192 193 142 179 249 108 187 160 164 232 352 199 221 275 247 261 282 235 251 176 198 234 186 237 260 223 123 268 257 252 237 189 180 195 194 188 201 198 199 199 197 201
323 321 320 319 318 318 319 320 319 318 316 318 323 327 331 333 334 334 334 334 335 330 305 252 227 216 193 187 218 239 221 205 207 205 210 203 197 198 199 201 195 195 187 136 143 147 136 157 135 123 281 137 170 168 202 227 41 65 258 271 247 265 267 236 246 225 211 221 190 231 268 259 120 229 245 203 107 169 178 199 198 205 215 205 204 202 200 207
321 320 319 319 318 317 319 319 318 316 315 316 318 324 329 330 331 332 332 334 335 325 281 222 211 200 176 207 235 233 222 208 208 208 206 191 188 192 188 187 185 194 196 155 145 144 140 151 147 140 341 157 171 179 182 123 46 122 224 270 239 252 258 221 217 204 201 205 176 201 267 244 202 228 240 153 125 175 185 206 203 211 218 211 209 204 206 209
320 319 319 319 317 317 319 319 318 316 314 313 316 322 326 328 329 329 331 335 334 320 226 198 197 183 178 244 232 222 227 214 207 214 198 183 179 178 167 159 161 179 196 170 147 137 149 157 156 117 80 210 202 124 131 98 5 206 179 290 273 258 249 183 150 144 186 188 161 200 279 245 206 227 233 136 146 172 196 219 210 214 217 214 212 209 212 207
320 319 320 319 317 317 319 320 319 318 315 312 313 318 324 327 326 325 329 334 333 306 198 194 180 166 184 258 229 217 219 211 211 208 184 178 168 150 135 127 132 137 134 144 138 128 146 153 142 116 93 327 87 135 160 124 229 222 179 260 258 262 233 137 148 169 182 170 168 209 273 270 219 216 208 145 171 184 218 230 216 215 213 215 215 213 217 209
318 319 320 319 318 318 318 320 321 321 315 311 312 317 324 325 323 324 326 330 334 226 168 173 170 158 227 257 226 213 209 207 212 205 195 184 172 145 131 129 117 113 110 118 124 117 125 137 142 128 98 7 156 181 227 206 185 165 255 240 195 236 245 146 170 193 204 115 188 208 250 275 265 196 146 135 177 201 234 240 227 220 212 217 219 215 220 216
316 316 317 317 318 318 318 320 323 322 316 312 313 316 322 322 320 319 318 324 303 182 154 168 172 171 281 257 164 201 207 211 209 204 200 190 188 173 142 131 111 104 105 105 113 109 105 109 73 342 131 201 207 221 263 257 223 176 246 265 229 223 261 196 163 200 247 128 198 225 256 279 276 144 108 136 185 204 237 247 237 226 217 219 221 218 218 216
313 313 314 315 316 317 317 319 324 323 316 314 315 317 321 320 314 312 309 270 183 159 153 170 162 177 269 176 161 216 196 200 199 195 193 188 192 175 148 126 98 99 106 105 117 116 63 62 108 244 190 202 213 212 253 261 251 204 201 257 253 233 251 254 174 152 191 208 219 225 241 261 263 248 151 167 187 207 236 248 243 230 218 220 221 219 216 215
312 312 313 312 313 314 314 317 322 322 316 315 318 319 320 315 305 303 221 157 135 132 144 142 152 201 243 172 196 216 160 181 184 179 180 171 171 170 157 130 123 130 121 112 164 184 301 48 223 253 211 197 197 193 226 249 261 262 241 254 271 246 235 243 241 154 165 213 235 223 229 252 262 264 251 204 181 215 244 249 249 236 221 223 222 219 215 215
313 313 313 311 310 310 310 314 320 321 317 314 317 320 317 309 291 249 176 153 158 204 217 168 183 237 275 210 240 161 147 162 168 174 171 156 157 164 151 122 131 149 153 186 190 166 214 190 204 246 223 211 203 204 227 244 258 271 266 265 273 265 256 244 177 153 181 224 242 234 236 251 262 267 268 251 189 216 252 254 252 241 226 227 223 219 215 218
317 320 317 312 309 308 309 313 317 321 320 318 328 331 314 299 287 256 169 192 222 243 328 186 207 275 291 246 152 162 164 163 175 183 177 168 157 153 138 119 129 186 198 201 168 140 238 225 226 237 230 215 208 212 231 265 294 257 255 256 257 259 270 263 120 124 188 242 252 245 245 254 262 266 268 266 237 230 250 254 252 240 228 230 224 219 215 222
323 328 325 317 314 314 313 315 318 321 321 320 335 335 296 173 283 301 326 247 235 233 263 228 227 269 266 229 163 164 151 186 200 188 182 175 159 166 172 164 185 204 202 140 105 121 193 228 239 241 232 213 212 212 213 189 174 231 238 252 259 251 265 274 106 133 175 220 259 260 260 259 261 263 261 259 254 249 247 248 252 246 235 230 223 222 219 224
320 330 330 320 318 320 319 323 322 320 318 313 318 296 270 321 246 262 327 274 259 215 241 255 253 262 255 232 199 168 143 239 217 186 179 166 170 203 172 170 206 208 142 123 155 185 207 238 246 237 116 103 86 165 196 208 200 211 225 248 262 256 273 282 99 117 178 219 270 282 282 271 264 264 258 247 244 251 251 246 251 252 246 237 222 220 221 223
315 328 331 320 315 318 322 328 326 323 321 313 306 243 235 216 178 152 193 277 287 208 204 216 225 242 235 229 202 175 196 230 220 192 174 163 172 207 170 187 207 177 161 190 199 199 212 244 257 94 124 154 128 140 182 198 203 205 207 233 249 241 270 267 260 110 193 225 289 294 284 271 263 260 256 245 239 251 260 258 255 250 245 244 231 216 216 221
315 324 328 326 314 313 325 329 328 331 323 313 302 253 216 177 149 132 222 276 278 239 231 223 224 234 220 196 179 182 206 225 213 189 171 171 164 146 193 196 183 205 215 203 202 222 235 234 98 100 155 183 170 167 187 201 215 211 212 227 242 240 224 248 335 334 236 212 287 297 286 264 238 238 248 239 240 259 265 268 264 250 240 241 233 220 219 222
312 316 322 327 316 314 327 327 329 343 330 320 295 239 186 171 141 98 331 272 247 254 286 224 211 219 195 131 157 174 195 220 207 164 169 183 168 140 184 165 195 229 211 177 196 238 249 208 123 130 148 185 192 201 202 205 219 224 220 229 243 261 251 238 9 330 282 244 185 330 307 286 179 184 230 193 237 261 254 259 266 254 228 221 226 227 226 226
305 311 312 317 316 319 326 324 327 336 334 345 303 194 170 171 150 106 335 269 241 203 147 192 187 185 169 133 146 152 173 237 154 108 165 194 199 159 187 145 204 248 167 144 194 242 253 79 112 157 159 181 211 233 205 187 217 238 223 234 242 253 257 231 241 271 277 280 343 38 303 288 215 176 198 165 215 258 247 251 265 259 218 199 219 224 220 224
300 305 304 309 314 320 329 323 318 329 338 3 336 194 185 180 172 192 282 273 250 173 141 193 192 167 159 151 179 158 206 222 97 107 159 188 189 152 213 190 170 212 153 147 213 221 133 113 127 164 169 185 216 242 187 170 207 241 82 47 169 181 207 206 208 239 269 315 301 187 234 276 273 211 197 180 194 241 253 249 258 265 250 206 209 217 216 220
295 296 298 304 307 310 314 311 313 326 338 334 336 215 198 181 193 242 260 267 267 121 123 162 105 118 119 99 226 149 303 331 122 162 59 65 186 138 227 219 183 166 168 193 220 213 101 158 175 168 180 204 216 266 156 176 203 336 70 72 110 129 160 173 211 248 271 322 268 194 186 265 275 190 180 211 205 222 245 245 244 254 260 238 209 215 217 216
279 280 290 293 290 285 295 301 298 279 300 325 329 235 176 180 212 57 234 256 254 103 92 123 134 113 91 128 214 62 1 338 38 131 84 150 198 77 236 226 143 146 163 228 239 313 68 199 199 169 189 210 162 40 44 201 204 136 139 101 91 91 90 133 242 259 261 272 248 190 168 243 279 166 135 176 205 213 235 246 245 245 257 263 230 217 215 210
261 261 273 272 258 268 290 295 280 282 311 322 304 235 170 196 214 194 229 246 226 111 81 135 163 145 130 155 207 212 213 303 54 105 116 136 116 43 303 221 108 149 157 271 264 261 95 78 301 210 204 164 103 71 20 2 120 140 156 120 104 127 100 136 245 265 268 259 224 198 185 208 274 196 141 150 185 200 213 233 250 251 254 257 239 215 208 200
254 248 249 253 250 258 285 290 275 329 345 328 322 157 174 195 178 219 232 248 113 164 141 163 167 146 159 174 185 165 182 218 148 171 173 155 153 136 179 191 153 166 216 247 248 207 139 170 209 202 136 119 116 93 52 58 116 156 168 158 254 234 161 198 189 156 249 259 195 200 193 201 239 233 151 161 183 201 211 224 241 245 242 244 232 208 199 191
254 243 239 246 245 243 256 256 263 310 323 335 61 164 176 204 225 226 222 53 183 196 163 175 179 175 180 183 182 158 166 191 177 185 177 165 186 185 201 201 165 190 233 220 224 191 189 202 164 120 188 186 163 123 88 94 181 205 178 166 253 272 268 243 221 185 236 256 125 120 174 214 241 247 209 208 209 214 226 235 240 240 237 238 224 200 187 180
252 240 234 238 234 234 254 258 260 277 292 330 154 134 92 226 235 186 156 189 218 172 92 103 107 162 161 160 195 167 160 195 162 179 189 158 201 212 234 247 181 252 250 184 202 209 223 242 141 170 220 196 189 184 186 184 180 190 182 182 219 230 262 256 241 241 259 264 134 123 158 239 260 258 220 217 218 211 218 236 240 242 246 250 171 172 184 190
245 237 228 232 232 230 243 252 251 258 271 167 160 112 143 230 242 124 176 209 222 41 58 85 103 140 169 191 205 169 201 213 156 170 193 162 196 219 225 224 208 243 3 163 213 196 236 266 173 175 167 166 191 207 172 122 156 189 174 179 228 207 222 257 268 280 288 300 224 153 182 238 256 267 207 214 221 211 217 238 235 238 250 248 94 186 220 214
233 232 225 225 227 223 222 234 234 232 242 169 156 158 205 230 224 130 199 188 153 178 90 67 129 156 213 247 243 219 226 221 151 159 191 182 200 206 196 204 193 173 147 198 214 169 240 265 167 138 11 165 181 199 90 112 151 183 90 173 237 211 206 254 298 292 310 309 263 182 215 244 227 115 161 153 211 208 223 239 231 233 241 225 204 228 223 217
222 224 220 216 217 213 210 220 215 203 207 178 172 196 223 231 207 169 198 158 165 162 125 140 157 165 229 218 213 227 217 223 163 168 205 207 226 217 182 206 186 180 186 184 185 172 229 267 124 99 281 179 161 76 116 161 181 153 164 198 206 48 208 235 267 93 118 278 267 206 249 267 257 218 174 148 178 204 221 234 228 231 237 226 227 235 224 216
213 211 208 208 209 205 199 203 192 182 196 189 199 214 227 233 200 170 181 149 143 139 141 206 196 175 209 211 209 193 163 193 179 180 203 196 227 201 182 233 189 189 203 198 210 223 217 263 139 124 210 99 0 345 82 2 13 140 190 192 133 56 342 240 265 290 243 262 272 260 268 276 270 255 153 150 194 218 227 229 221 227 237 237 236 239 239 225
207 204 211 210 204 195 184 182 175 172 186 203 221 228 226 218 193 165 161 136 128 161 178 216 202 177 201 212 206 164 164 186 166 177 209 192 222 177 163 208 192 193 210 209 232 261 189 244 258 83 318 81 28 262 145 54 33 63 275 212 121 212 182 161 227 255 249 254 275 277 278 276 260 245 144 164 197 215 225 226 219 223 228 232 235 238 242 233
197 195 237 208 195 189 176 170 163 154 170 210 227 234 225 227 231 174 172 172 172 185 199 220 213 199 211 201 164 148 178 192 162 177 213 192 214 176 160 192 197 200 208 194 202 233 147 225 242 16 321 118 130 209 195 182 159 19 283 205 330 262 193 181 187 222 250 254 276 284 284 277 248 177 158 178 196 207 215 219 219 221 222 224 230 234 237 233
182 191 256 180 183 185 171 163 154 149 187 215 233 241 250 275 277 266 230 213 200 198 212 222 214 213 217 190 167 179 193 209 185 191 218 192 207 206 179 187 180 188 195 182 202 208 113 220 232 124 324 220 190 198 199 190 173 176 196 180 182 185 90 288 242 191 247 252 261 277 280 276 245 122 158 178 189 200 201 212 216 215 225 230 229 229 232 234
172 230 205 167 175 173 160 157 170 177 195 229 241 244 253 297 280 274 283 258 259 301 248 226 218 217 213 194 212 191 182 216 205 200 223 203 214 224 192 192 170 133 132 164 213 210 161 207 218 187 201 221 218 197 184 197 173 177 187 184 187 175 151 218 233 203 177 242 244 242 272 273 248 106 127 158 175 199 196 209 212 203 222 229 224 226 225 228
184 230 167 167 171 164 155 174 199 180 212 221 231 251 259 291 276 265 293 238 244 301 328 280 234 223 220 207 207 186 177 208 204 203 227 216 218 219 191 189 170 143 138 161 206 207 153 154 213 224 226 220 246 58 57 323 182 184 211 199 186 179 179 202 223 216 163 227 249 218 272 272 234 98 71 143 159 198 193 196 200 196 218 222 215 223 224 227
206 208 150 170 172 163 157 200 189 189 224 217 238 286 257 285 289 262 252 219 214 225 228 252 230 227 240 222 193 188 192 210 199 190 219 232 226 222 185 160 155 152 156 163 177 169 105 137 209 240 264 242 82 89 118 23 141 201 231 205 184 195 199 204 225 215 184 219 212 162 252 261 162 87 82 189 176 210 183 173 199 202 217 228 221 223 227 230
189 152 86 177 178 171 170 198 192 203 218 218 241 245 231 249 250 239 239 221 219 216 221 241 232 234 247 205 193 209 196 209 214 192 207 234 234 213 164 159 163 174 194 187 174 171 174 192 192 211 251 252 231 182 165 177 198 219 228 191 192 206 206 220 324 189 241 232 206 185 242 253 267 81 162 172 192 226 174 155 208 215 208 221 227 228 231 232
137 142 47 187 191 193 200 201 193 205 212 217 229 233 235 244 238 232 234 235 242 234 233 254 247 235 232 177 238 238 207 219 234 211 214 230 245 28 173 180 183 193 199 147 154 172 176 182 182 197 222 229 234 233 194 153 192 226 219 189 193 203 204 207 212 213 235 226 192 202 241 256 278 277 256 233 248 263 246 176 196 219 217 220 226 228 228 226
167 196 133 173 208 224 237 238 221 211 211 215 223 229 230 235 243 217 211 229 239 229 240 296 269 222 225 210 238 247 231 229 234 230 234 230 189 41 245 211 206 211 194 117 156 171 166 181 192 209 226 227 239 252 242 117 159 200 198 190 197 206 206 205 218 224 224 186 194 228 241 254 272 274 273 273 272 276 276 251 219 218 211 217 228 231 231 229
209 213 173 164 207 227 229 235 231 223 214 205 204 211 218 227 242 229 193 213 229 223 232 259 225 226 226 215 229 242 237 231 230 238 246 245 229 291 273 228 242 261 338 141 184 165 140 210 208 218 230 230 239 251 246 175 177 207 197 191 202 210 205 210 225 221 158 112 236 241 243 252 263 267 273 278 278 279 279 274 266 244 196 199 224 226 228 231
217 226 176 172 189 203 209 216 216 217 214 201 199 219 221 220 225 223 212 203 208 208 212 231 228 229 234 229 229 242 243 240 240 240 247 251 243 247 7 234 247 284 130 270 281 163 171 228 223 224 234 233 237 249 247 219 203 221 204 194 205 209 205 212 226 220 183 207 239 245 249 257 261 260 266 273 277 276 276 276 276 264 199 218 243 242 237 228
225 257 207 193 197 189 197 209 211 211 213 209 209 221 222 221 221 221 211 149 195 212 202 220 230 225 231 236 233 237 237 234 240 237 239 246 235 213 228 239 239 49 184 200 239 197 189 225 229 233 245 247 248 255 256 254 253 252 235 216 220 219 211 216 230 227 217 229 245 256 262 266 266 266 270 276 274 273 276 281 281 274 258 263 269 270 268 257
235 273 231 209 219 199 198 210 208 208 214 213 214 218 220 226 228 227 208 184 208 213 192 217 233 227 224 229 227 230 230 230 241 242 232 232 226 204 218 227 176 94 212 204 208 229 212 219 230 238 250 250 249 254 257 255 251 254 257 253 245 236 219 224 236 231 225 241 257 265 270 270 265 265 269 268 268 272 277 279 278 274 265 267 272 273 272 270
266 286 288 252 229 204 202 208 199 203 212 208 214 222 223 228 229 231 227 207 210 214 195 209 228 231 228 227 221 226 231 230 236 241 236 228 213 196 210 206 158 155 199 207 195 195 214 228 236 240 246 243 241 247 246 225 220 253 260 255 250 245 233 234 239 231 218 233 249 253 254 253 254 257 257 257 261 268 270 270 270 268 265 270 273 271 271 271
280 282 283 278 249 200 205 216 205 206 211 204 211 217 219 226 226 226 237 221 212 222 219 213 223 231 232 227 218 221 228 229 231 239 242 231 194 191 202 191 185 194 202 208 199 168 200 223 228 224 237 244 241 246 244 220 226 246 240 243 247 249 248 247 248 245 232 228 241 250 247 246 251 255 254 255 257 256 256 259 265 268 273 279 275 269 269 271
Height
846 846 845 845 844 843 843 842 842 841 840 839 839 838 837 836 835 834 833 831 830 829 829 828 827 827 826 826 826 826 825 825 824 824 823 822 821 821 821 821 821 820 820 819 819 819 819 819 819 820 820 821 823 824 826 826 827 826 826 830 829 826 826 821 821 822 819 818 822 828 826 822 826 833 835 835 835 834 835 835 833 833 833 833 834 836 837 838
847 846 845 845 844 843 843 842 841 840 840 839 839 838 837 836 835 834 833 832 830 829 828 828 827 826 826 826 825 825 825 824 824 822 821 821 821 820 820 820 820 820 819 819 819 818 818 818 818 818 819 821 824 824 825 826 827 826 827 830 825 820 820 818 817 818 819 819 820 824 825 823 823 827 833 831 829 833 834 832 833 833 830 831 834 835 837 837
846 846 845 844 844 843 842 841 841 840 839 839 838 837 837 836 835 834 833 832 830 829 828 827 827 826 825 825 824 825 824 824 824 820 818 819 820 820 820 819 819 819 819 819 818 818 817 816 817 818 819 821 824 824 824 826 826 826 828 826 820 819 818 818 819 819 820 821 821 823 825 827 823 824 830 827 826 830 828 823 828 829 824 825 830 834 836 837
846 846 845 844 844 843 842 841 840 840 839 838 837 837 836 835 834 833 832 831 830 829 827 826 826 825 825 824 824 825 824 826 823 817 816 818 819 819 819 818 819 818 818 818 818 817 817 817 817 818 820 822 825 825 824 825 826 826 826 821 819 823 821 817 819 820 822 823 821 822 827 828 825 826 827 825 825 824 819 814 816 817 815 819 826 830 833 834
846 845 845 844 843 842 841 841 840 839 838 838 837 836 835 834 834 832 832 831 829 829 827 826 825 825 825 824 825 823 825 830 821 814 816 817 817 818 818 818 818 817 818 818 817 817 817 817 818 819 820 822 825 824 823 825 827 825 822 820 822 826 821 817 820 823 825 826 823 824 825 824 824 827 824 822 819 810 807 807 807 808 809 815 821 826 829 831
846 845 844 843 842 842 841 840 839 838 838 837 836 835 834 834 833 832 831 830 829 828 827 826 825 825 824 824 825 823 827 828 818 814 816 816 817 817 817 817 817 817 817 817 817 817 817 818 818 820 821 822 825 824 823 826 828 824 819 821 824 825 822 819 823 826 826 825 822 823 821 821 824 823 820 820 811 802 804 806 806 808 809 812 817 822 825 826
845 844 843 842 842 841 840 839 838 838 837 836 835 834 833 832 832 831 830 829 828 827 826 825 824 824 824 824 824 824 827 822 814 815 816 815 816 816 816 817 816 816 816 816 816 816 817 818 818 821 822 823 825 824 825 827 828 824 819 820 823 826 824 821 825 827 827 824 821 823 821 822 821 819 821 816 804 802 806 808 809 809 810 813 816 819 819 820
844 843 842 842 841 840 839 838 837 837 836 835 834 833 832 831 831 830 829 828 827 826 825 824 824 824 824 824 824 826 826 819 813 815 815 815 816 815 816 816 816 816 816 815 815 815 816 818 819 821 821 822 822 823 827 827 825 824 820 819 823 827 823 823 827 827 827 825 825 826 821 820 819 821 822 810 799 802 805 807 810 810 811 813 813 815 816 817
843 842 842 841 840 839 838 837 837 835 834 834 833 832 831 830 829 828 827 826 825 825 823 823 823 823 824 824 825 827 822 815 814 814 814 815 815 815 815 815 815 815 815 815 815 814 815 817 818 819 819 821 821 822 827 825 821 820 819 819 822 822 821 824 825 825 827 825 826 824 818 819 822 824 814 798 796 799 801 805 808 810 811 811 811 812 813 814
842 841 841 840 839 838 837 836 835 834 833 832 831 831 830 828 827 827 826 825 824 823 822 822 822 823 824 823 826 827 818 813 815 814 814 815 814 815 814 815 814 814 814 814 814 814 814 815 816 817 818 821 822 824 827 824 821 820 821 822 822 820 822 824 823 824 826 823 825 821 815 817 823 825 806 791 798 799 800 805 806 808 808 808 809 809 811 811
841 840 839 839 838 837 836 835 834 833 832 830 830 829 828 827 826 825 824 823 822 821 821 821 821 822 822 822 826 824 815 814 815 814 815 815 815 815 814 815 814 814 814 813 814 814 813 814 815 817 818 819 821 825 827 824 823 824 825 823 822 821 820 821 821 823 823 821 823 821 817 817 823 822 799 791 801 800 800 803 805 806 804 805 806 807 809 809
840 839 838 837 836 835 835 834 833 832 830 829 829 828 827 826 824 824 822 821 820 819 819 820 820 821 822 823 822 818 814 815 815 814 815 814 815 815 814 815 814 814 814 814 814 813 814 814 814 817 819 819 820 825 825 825 827 828 827 822 818 819 817 816 818 822 821 819 820 822 819 813 815 808 789 792 801 801 802 802 804 805 803 803 804 805 806 806
839 838 837 836 835 834 833 833 831 831 829 828 827 826 826 824 823 822 820 820 819 818 818 819 820 820 822 822 816 814 814 814 814 815 815 814 815 815 815 815 814 814 814 814 814 814 815 815 815 817 820 819 821 824 823 827 829 826 827 824 818 817 814 814 820 822 821 820 820 822 815 797 794 790 783 792 799 800 802 800 801 802 801 802 802 803 803 804
838 837 836 835 834 833 832 831 830 829 828 827 826 825 824 823 822 820 819 819 818 818 818 818 819 819 822 818 813 813 813 814 814 814 814 814 815 815 815 815 814 815 814 814 815 815 815 816 816 817 820 822 822 825 824 827 828 825 827 827 825 819 812 814 822 820 818 821 821 823 816 791 781 782 782 791 796 798 799 794 796 798 799 800 799 801 799 800
837 836 835 834 833 832 831 830 829 828 827 825 824 824 823 822 821 819 819 818 817 818 817 818 818 819 821 816 812 813 812 813 813 813 814 814 814 815 815 815 815 815 815 815 815 816 817 817 817 818 823 825 824 824 822 822 824 825 825 822 825 823 812 812 820 818 815 821 822 821 814 791 779 780 784 793 796 797 796 790 791 792 795 796 796 797 796 796
836 835 834 832 831 830 829 829 828 827 825 824 823 823 822 821 819 819 818 817 818 817 817 818 818 819 820 816 812 812 812 812 811 812 812 813 814 814 815 816 816 816 816 817 816 817 817 817 821 824 824 824 822 821 820 821 820 823 824 817 818 821 814 811 817 821 818 819 821 818 809 789 779 783 789 797 797 797 796 789 787 787 790 792 791 792 792 793
834 833 832 831 830 829 828 827 827 825 823 822 822 821 821 820 818 817 817 817 817 817 817 817 817 818 817 813 813 811 809 809 809 810 811 812 813 813 815 815 816 817 817 817 817 818 817 819 825 825 822 823 822 821 825 827 817 817 824 820 814 815 815 811 811 820 823 820 817 816 812 795 780 781 788 795 796 797 794 787 783 782 785 786 787 787 788 789
833 832 831 830 829 828 827 826 825 824 822 821 820 819 819 818 817 817 816 816 817 818 818 817 818 821 817 811 810 808 806 807 808 809 810 811 811 813 814 814 816 817 817 819 818 818 818 820 824 822 821 825 822 821 826 824 812 812 818 816 812 812 814 811 808 815 821 821 816 813 812 798 782 778 781 785 791 792 786 781 777 776 779 780 782 782 783 785
832 831 830 829 828 827 825 825 824 823 820 819 819 818 817 816 816 815 815 816 817 817 817 816 815 817 814 808 807 806 806 807 808 809 810 811 811 813 813 814 815 816 819 820 817 819 820 820 825 824 820 818 815 813 813 808 805 809 812 812 813 810 808 805 808 816 818 819 815 809 805 795 784 779 776 776 783 785 779 774 771 770 772 774 775 777 779 780
831 830 829 828 826 825 824 824 823 822 820 818 818 818 816 817 817 816 815 815 813 811 811 810 808 809 808 805 806 806 807 808 808 809 810 810 811 812 813 814 815 816 818 818 818 821 823 822 821 815 807 805 806 805 805 807 810 813 815 817 815 812 805 798 808 820 821 817 806 798 798 793 784 779 775 773 776 779 775 769 764 764 767 767 768 771 774 774
831 829 828 826 825 824 823 822 822 821 820 819 819 819 818 819 820 819 816 812 808 807 808 807 808 807 804 804 805 805 806 807 807 808 808 809 810 812 812 813 816 817 817 819 822 823 825 823 812 799 796 801 804 805 809 814 817 816 816 818 815 812 806 799 811 821 822 819 803 794 798 793 784 778 773 772 772 769 763 760 757 756 759 761 763 766 768 769
830 828 827 826 824 823 822 822 821 820 819 819 819 819 819 819 820 820 819 814 807 806 808 807 808 806 802 803 804 804 806 806 806 806 807 809 810 810 810 813 815 815 819 823 822 824 826 817 800 794 800 807 812 816 816 816 819 819 818 820 815 809 804 801 814 824 822 819 803 797 801 789 778 773 766 765 765 756 749 750 750 749 752 753 755 759 762 765
829 828 827 825 823 823 821 821 820 819 819 819 818 818 819 819 819 820 821 818 811 805 806 805 804 802 800 801 801 803 805 804 803 802 804 807 808 810 809 811 814 815 820 819 815 821 821 807 800 804 806 808 816 822 820 817 819 818 817 818 810 806 807 803 812 824 821 818 810 807 805 786 771 765 757 756 756 749 745 746 746 745 745 745 748 753 756 759
828 828 826 824 823 822 821 820 819 818 819 818 818 818 818 819 819 820 819 818 813 805 802 801 801 799 796 797 798 800 802 801 799 799 801 803 805 809 807 807 813 815 814 810 811 813 806 804 813 815 810 808 814 821 820 816 815 815 815 812 802 801 807 806 812 820 814 816 820 812 791 765 756 756 750 753 759 753 748 748 745 741 740 742 745 748 750 750
828 827 825 824 823 821 821 820 818 819 818 817 818 817 818 819 818 820 819 819 816 806 801 799 798 796 793 795 797 797 800 798 797 798 800 801 802 806 807 807 809 808 806 809 815 811 801 809 817 814 815 813 811 815 814 811 810 811 810 805 800 799 806 813 819 818 808 807 817 815 790 755 745 751 747 750 758 752 750 749 740 734 736 741 743 743 744 745
827 826 825 824 823 821 820 818 818 819 817 818 818 817 819 818 819 820 818 822 817 803 799 797 793 792 790 794 797 797 800 797 797 799 799 800 800 801 804 807 808 807 807 811 815 810 806 816 816 810 814 815 812 810 807 809 809 808 809 808 807 807 811 818 820 817 807 802 811 817 805 772 748 746 741 742 749 743 743 743 731 725 729 735 738 738 740 741
826 825 825 823 822 822 820 819 819 817 816 818 817 818 819 817 820 819 818 826 813 790 791 795 791 789 789 795 796 795 798 796 797 800 799 800 800 800 801 803 807 810 812 813 811 807 808 817 819 812 812 814 812 806 803 808 807 807 816 818 813 813 817 818 818 815 807 808 813 812 812 794 761 744 736 735 743 740 737 737 729 721 719 723 730 733 735 737
825 825 824 823 822 822 821 820 818 817 818 817 816 818 818 817 820 816 823 832 805 777 783 791 790 789 790 797 796 794 797 795 795 799 800 801 800 801 800 799 800 804 810 809 803 803 806 811 813 812 813 810 806 805 805 805 804 811 824 824 817 818 819 818 816 813 811 818 814 802 811 803 760 740 742 738 743 744 737 732 727 721 715 715 722 728 731 733
823 823 823 823 821 821 821 820 819 818 817 817 818 818 816 820 818 816 834 833 792 770 780 785 788 791 793 798 798 796 799 797 795 798 800 801 799 801 802 801 801 803 810 808 798 800 808 813 811 808 807 803 804 817 818 805 803 819 828 823 821 823 821 821 818 813 818 822 809 794 804 797 751 731 749 754 748 744 735 727 721 716 715 714 718 724 727 730
822 821 822 822 821 821 820 819 819 818 817 817 817 817 817 820 817 825 841 819 780 775 785 784 788 790 793 798 797 798 799 798 799 800 801 801 800 802 804 804 804 803 808 810 804 804 813 820 817 809 804 804 813 826 828 819 816 823 823 815 818 821 821 824 819 817 820 808 791 781 785 790 760 730 739 747 739 732 727 723 717 713 714 714 716 721 723 726
819 819 820 820 820 821 820 820 819 817 818 817 816 818 818 819 823 829 822 792 776 783 784 785 790 789 790 792 791 796 799 798 800 800 800 801 801 803 803 803 804 806 808 807 803 804 812 816 811 808 810 811 814 820 827 829 826 822 813 807 811 812 813 819 818 823 818 789 778 779 778 785 768 733 728 730 725 724 721 717 713 709 711 710 711 717 720 723
817 817 818 818 819 819 819 820 818 818 818 816 818 817 815 823 824 815 800 783 779 782 776 782 790 788 790 789 788 795 797 796 798 797 797 800 801 799 796 792 794 801 802 799 798 798 801 803 802 806 813 811 803 808 821 827 824 818 808 808 812 809 809 809 805 809 801 778 781 791 785 777 752 724 724 725 721 722 719 713 708 705 707 705 707 714 718 721
814 814 815 816 817 817 818 818 818 819 817 817 819 814 818 828 809 788 788 784 776 777 776 781 788 789 791 789 788 794 795 792 795 797 796 798 800 795 791 789 790 791 789 792 797 796 792 796 803 803 803 803 795 792 802 810 814 811 802 804 808 809 814 806 793 793 786 772 782 797 790 770 740 718 716 716 712 712 713 711 707 705 706 705 708 716 719 721
809 811 812 813 814 815 815 816 818 818 818 818 816 815 825 822 791 775 783 777 772 779 782 784 789 791 790 787 787 789 788 787 791 795 796 799 801 796 790 790 791 789 789 794 795 793 788 783 787 789 785 789 788 781 782 792 805 805 796 799 799 796 801 793 780 779 776 769 780 797 784 750 727 714 704 703 704 705 708 706 704 708 709 709 714 719 720 720
805 807 808 809 811 813 813 815 816 817 819 817 813 817 817 798 778 778 777 770 774 780 784 789 789 788 789 788 789 786 779 780 787 793 794 794 790 785 781 780 784 788 789 792 789 790 790 773 770 785 786 785 784 781 782 787 797 804 802 802 798 786 782 784 785 789 793 787 779 781 761 720 708 711 704 708 709 705 707 702 701 707 706 708 715 716 717 718
801 802 804 804 805 808 811 813 814 816 818 815 813 813 794 767 765 773 766 762 770 773 781 790 786 787 789 785 786 785 779 781 788 790 789 789 781 777 776 770 773 779 776 778 780 783 784 773 776 792 791 789 790 786 788 785 786 801 804 797 793 787 780 782 794 802 810 797 763 749 739 712 706 709 702 707 710 705 705 702 700 703 700 704 709 708 710 711
797 797 797 796 798 803 807 810 814 817 817 814 807 793 770 753 755 759 757 759 762 764 773 777 773 777 779 775 775 778 780 782 786 784 781 784 774 767 772 766 763 768 760 758 766 767 768 768 779 792 787 794 806 796 792 792 789 795 795 785 786 792 789 786 793 795 798 791 756 732 729 715 706 709 706 709 710 705 701 697 698 701 701 704 704 703 703 704
791 792 791 788 792 799 803 808 812 815 817 815 800 775 759 753 750 750 754 757 757 759 765 764 761 763 765 764 764 772 779 776 780 781 774 773 763 750 759 760 757 760 752 751 760 762 764 766 779 799 796 797 806 796 788 795 797 793 790 785 783 786 788 792 798 791 785 785 761 730 722 708 691 696 706 708 706 701 696 693 695 699 701 703 701 700 700 701
788 792 788 783 789 796 800 804 809 816 821 816 796 772 758 753 751 750 750 749 750 755 757 752 752 755 756 756 757 767 774 767 770 775 765 761 756 745 748 748 748 754 751 754 760 759 764 764 771 798 807 797 797 793 782 784 796 799 793 791 786 780 780 784 788 781 773 775 762 739 724 695 668 673 688 693 692 689 689 690 692 694 695 697 697 696 697 698
785 789 784 779 786 793 797 801 808 815 816 805 787 770 761 758 757 754 749 747 748 749 747 744 746 750 751 754 755 757 763 760 760 763 756 753 750 744 744 741 742 751 753 756 758 756 765 765 763 789 808 794 780 776 766 761 776 789 786 784 785 784 785 785 781 777 772 770 764 759 737 686 658 666 672 676 680 679 682 686 687 691 692 691 693 693 694 695
783 785 780 777 782 787 794 801 803 804 804 794 779 768 765 763 758 755 753 753 753 749 746 745 745 744 745 752 753 751 757 759 757 757 753 748 744 739 737 734 736 748 757 762 761 755 760 762 758 772 786 774 757 757 760 755 756 765 767 768 770 772 779 784 779 777 780 770 754 760 744 685 656 667 669 670 677 675 679 683 683 689 690 689 692 691 692 694
781 779 776 777 780 782 789 794 793 795 796 787 773 767 767 765 760 758 756 756 757 755 752 750 746 743 741 742 744 746 751 752 753 754 748 742 737 730 728 730 733 738 746 753 755 749 750 755 756 754 753 755 760 768 775 769 759 758 759 756 757 760 764 768 766 767 777 771 753 761 752 690 653 665 670 672 677 675 678 681 682 686 686 685 688 689 691 693
778 776 775 777 777 778 785 789 788 789 786 774 768 768 767 766 765 762 759 757 757 755 754 751 747 745 741 739 741 745 746 744 744 746 744 740 734 726 725 731 735 735 736 743 748 749 751 754 756 753 743 747 766 776 777 774 766 760 758 755 755 755 751 752 754 756 761 758 751 765 758 697 657 665 671 673 676 675 679 685 685 685 685 685 686 687 690 691
773 776 778 779 778 777 779 779 778 780 777 772 772 770 766 766 766 763 760 758 755 752 751 747 744 743 741 741 743 741 741 740 736 736 738 735 730 727 728 729 732 731 730 732 736 741 749 751 753 760 756 752 757 761 765 772 768 757 753 755 754 752 751 753 759 764 758 741 736 753 740 689 661 668 674 675 675 673 679 687 686 684 684 684 685 686 688 689
771 775 778 779 779 777 772 767 767 771 772 773 772 767 766 766 762 759 760 757 753 752 749 744 743 743 741 743 744 740 738 737 732 732 733 729 728 733 734 729 726 724 722 724 726 730 738 742 744 754 759 753 744 734 735 752 761 756 754 755 752 750 750 750 754 759 749 728 728 736 715 679 666 668 667 670 672 668 671 680 684 684 683 683 683 683 683 684
765 768 774 779 779 775 769 765 766 767 765 768 768 765 766 764 757 755 758 756 752 752 750 747 746 744 742 743 743 739 737 734 733 734 731 725 726 734 738 733 727 724 725 726 727 729 733 732 730 735 737 734 727 716 715 731 744 749 750 750 747 743 742 743 743 738 729 726 728 718 699 689 684 673 663 664 667 665 664 670 675 677 679 682 682 680 679 679
759 757 761 770 772 770 769 767 766 763 759 762 762 757 757 759 757 755 755 751 748 750 751 748 746 745 742 741 739 734 731 733 736 735 728 724 726 732 738 738 733 731 732 731 729 731 733 729 722 721 721 719 716 710 711 721 729 732 737 742 741 739 740 742 734 717 717 730 724 700 692 700 695 678 666 663 664 664 662 662 663 663 669 675 675 674 675 676
755 749 745 748 751 755 759 757 756 757 756 758 756 749 748 753 755 753 750 748 749 749 752 750 746 743 738 735 736 733 731 734 737 733 726 723 726 731 735 736 737 737 735 735 734 731 730 728 720 717 717 713 711 707 705 713 719 719 724 730 731 732 735 733 723 712 715 719 704 686 688 696 689 674 665 662 662 660 656 655 655 656 662 667 667 666 666 667
749 745 741 740 738 739 742 741 744 751 754 755 754 750 748 749 747 743 742 749 752 748 747 748 743 739 736 734 736 736 735 735 733 728 725 724 725 729 730 730 735 741 738 735 735 732 729 725 719 717 717 714 712 708 703 710 718 718 719 722 721 720 722 722 717 712 710 702 689 686 692 690 678 667 662 661 658 653 651 651 650 651 655 658 658 657 654 655
746 742 740 740 737 735 735 736 741 748 749 751 751 746 745 743 738 733 732 738 743 741 742 742 734 730 730 731 733 735 731 727 724 719 718 720 722 726 726 722 727 739 741 735 733 734 729 721 714 715 719 717 712 707 706 712 717 718 720 719 712 710 715 716 711 707 708 705 697 698 702 693 674 663 663 660 652 649 652 652 647 645 645 649 652 650 647 646
745 741 740 738 734 731 732 731 735 740 742 744 743 738 737 734 728 725 723 720 723 726 727 728 724 721 723 726 731 730 722 718 717 711 707 712 716 718 720 719 720 731 738 735 731 732 730 723 717 720 723 718 709 707 710 714 720 726 725 713 701 702 706 702 694 695 703 707 703 701 700 687 667 659 660 655 649 650 652 649 642 636 636 643 648 645 641 640
744 742 740 737 731 726 726 726 727 728 727 726 725 722 721 718 716 721 722 716 712 712 711 713 716 717 720 722 721 714 707 705 705 702 701 708 712 710 712 714 715 721 729 731 729 729 728 724 721 723 725 718 708 708 711 717 729 729 712 694 690 694 693 685 679 681 686 692 694 689 678 665 655 654 654 650 648 648 646 642 635 629 633 642 643 638 634 633